Presure
83 202 205 195 192 186 185 189 211 203 201 206 208 181 237 191 201 199 233 220 211 205 170 162 164 173 168 171 182 155 164 180 152 162 182 165 180 177 181 176 185 187 184 188 189 194 208
126 198 195 203 208 201 199 198 198 207 183 156 173 202 197 185 176 179 176 169 166 169 155 188 165 156 163 152 159 167 148 156 176 179 159 167 163 175 152 161 166 182 178 172 176 178 187
129 203 201 98 196 116 200 178 161 162 183 196 186 182 181 176 163 169 153 154 155 153 157 168 156 168 141 155 153 148 158 151 165 170 171 168 155 152 162 158 154 150 172 178 175 170 168
152 143 208 136 126 194 176 215 193 186 182 179 174 172 154 161 154 167 161 195 164 146 170 169 164 144 160 161 151 156 143 153 153 163 159 159 176 169 161 172 140 147 156 156 171 171 159
93 149 108 163 138 203 133 182 181 166 167 170 162 156 156 162 159 167 159 189 179 158 159 152 149 152 157 151 144 154 151 147 161 148 148 150 152 156 169 170 147 168 172 171 168 171 172
153 160 123 193 178 147 162 122 175 170 158 158 150 153 153 180 174 180 184 161 170 162 154 150 146 152 145 150 161 149 143 156 151 159 166 148 167 167 159 146 160 163 169 160 170 178 167
95 154 159 164 135 164 153 158 159 162 161 162 181 179 172 167 156 170 156 171 162 146 146 143 150 138 149 141 129 146 125 156 165 160 155 155 150 148 167 153 167 160 141 167 171 170 160
151 128 132 153 118 126 161 164 89 138 155 184 159 132 173 168 143 160 164 157 168 153 141 161 148 150 158 151 157 142 165 161 156 158 167 153 142 151 162 158 167 147 163 163 170 170 160
129 126 103 136 152 149 151 150 124 153 177 150 151 145 159 113 167 167 156 153 162 160 153 148 151 149 164 154 164 165 168 156 156 164 174 161 156 138 152 141 159 161 157 169 165 163 162
158 162 161 159 170 143 143 128 171 171 128 154 167 153 145 163 136 154 125 168 169 161 152 167 166 150 165 138 149 173 170 146 172 158 158 155 147 162 158 161 168 150 166 153 158 169 152
156 151 154 129 153 147 151 163 143 124 165 167 165 160 114 168 161 158 163 144 172 159 175 137 155 178 153 165 161 172 173 177 166 157 155 158 140 171 143 160 152 157 155 142 144 148 140
150 154 155 155 153 149 130 145 151 137 159 142 156 132 160 152 166 144 160 161 154 156 165 152 155 171 171 164 168 169 151 155 152 139 169 154 154 147 167 163 152 155 172 159 145 159 154
137 154 154 138 150 138 171 158 136 155 150 147 147 152 153 161 169 150 162 157 159 154 143 157 158 165 153 145 157 162 169 142 173 156 162 151 157 139 169 139 162 141 157 167 178 168 167
163 153 158 139 150 161 157 164 154 143 153 160 144 138 136 139 148 153 152 159 139 164 151 164 145 156 163 171 168 156 166 161 156 165 142 141 145 140 143 142 138 149 175 148 179 171 149
160 164 146 166 156 156 154 161 124 155 161 136 139 166 154 159 157 150 127 157 153 158 161 154 159 158 145 153 139 161 151 158 164 155 168 155 146 149 151 146 139 182 164 176 177 160 155
159 159 163 159 150 168 159 154 163 163 157 140 136 142 134 147 154 160 142 161 142 144 152 147 156 148 153 157 160 142 157 150 141 162 168 167 160 154 147 158 153 157 163 161 158 147 154
175 158 168 152 163 159 161 163 146 147 160 157 166 128 155 158 142 141 130 152 157 155 156 155 141 158 153 162 152 159 163 165 166 167 167 175 175 160 170 160 162 184 153 148 148 149 163
134 177 146 153 157 147 166 162 171 153 153 156 160 163 163 141 119 156 150 151 156 142 165 157 163 160 144 162 144 166 148 164 151 163 159 177 181 150 150 158 149 159 159 182 176 173 171
171 159 152 166 173 151 157 125 163 165 167 141 167 138 129 163 168 161 166 164 130 162 163 148 153 157 138 168 150 166 159 141 151 134 148 174 183 160 166 138 143 176 171 189 161 171 170
148 173 171 174 147 164 173 161 162 169 166 146 160 160 168 147 149 161 153 137 152 157 154 148 146 163 172 164 164 167 137 164 165 157 149 142 165 148 154 181 155 176 190 152 170 162 181
152 169 192 172 173 157 171 162 156 174 175 164 162 150 146 132 168 164 166 166 155 153 142 153 131 137 158 142 172 155 160 168 157 146 167 160 172 149 163 206 170 161 193 182 191 179 181
189 185 137 181 172 171 172 174 163 149 180 160 177 170 130 125 134 176 169 170 164 157 141 147 155 133 147 159 166 148 168 179 165 176 179 149 199 165 197 182 183 194 150 182 183 180 181
179 174 179 144 181 159 172 185 160 142 146 179 180 165 181 151 133 162 137 167 139 143 134 131 150 160 168 143 158 150 171 165 177 185 179 188 176 185 196 179 188 191 178 192 203 194 214
199 181 176 198 168 188 181 169 174 167 182 180 188 183 175 166 165 171 174 164 141 155 164 156 170 161 157 164 168 169 161 178 183 171 179 190 146 193 191 189 200 195 170 208 207 191 194
198 186 193 179 193 177 159 175 161 193 182 186 196 192 154 174 193 158 139 174 162 147 174 164 170 160 173 174 165 173 170 178 186 186 177 174 184 190 197 194 195 203 200 197 214 201 205
198 189 183 191 200 179 191 182 187 175 173 146 184 181 167 182 138 188 181 140 165 153 164 153 177 167 169 177 178 183 174 184 185 185 178 138 189 197 193 198 204 208 187 208 202 197 191
189 195 205 188 180 193 199 178 201 173 180 179 170 169 171 169 174 176 151 166 160 170 165 166 168 174 171 181 174 183 184 189 189 189 195 184 197 193 195 204 216 198 192 176 213 192 218
177 197 198 197 194 180 180 155 192 191 174 175 180 173 193 178 180 176 166 175 181 181 179 174 181 182 172 173 175 185 187 179 190 191 195 198 198 205 184 212 191 197 186 187 203 201 206
206 215 198 204 190 204 194 186 191 186 202 187 175 182 177 171 191 179 181 178 183 181 181 162 186 175 177 190 191 192 192 174 203 201 196 188 202 178 180 196 182 196 207 206 206 210 221
Wind_Speed
17 17 20 22 24 24 25 24 24 21 19 17 18 13 12 5 5 7 11 10 17 13 9 17 14 8 7 5 7 21 17 6 23 18 10 20 11 14 17 16 16 17 17 18 20 17 16
28 18 18 18 21 23 23 22 20 17 14 18 12 7 5 5 6 2 3 3 7 9 17 20 11 17 11 22 19 11 24 22 9 10 21 18 20 15 27 25 22 18 19 21 23 25 23
32 21 23 18 20 14 17 18 18 19 14 8 6 5 4 3 9 6 11 9 12 16 19 14 18 9 27 21 21 26 21 26 17 15 12 13 31 31 28 24 31 31 25 19 22 29 32
30 33 23 19 28 17 17 15 14 11 10 9 9 8 16 12 14 9 11 12 13 19 13 12 12 27 18 18 24 23 28 30 29 24 30 28 13 16 26 15 32 34 36 40 26 28 40
40 34 31 25 17 16 14 15 15 17 15 13 13 16 17 14 14 10 12 10 10 17 17 22 24 22 20 22 29 28 30 32 21 33 32 35 36 36 21 21 37 26 28 27 30 32 35
23 27 24 15 17 19 17 15 17 15 20 20 22 19 20 9 10 6 7 13 13 16 17 21 25 22 27 28 22 32 33 26 37 33 21 36 22 23 34 39 38 37 30 38 31 30 34
41 24 30 22 39 21 25 21 20 21 21 21 17 14 15 16 17 13 18 10 16 28 28 32 28 34 30 36 36 33 38 38 23 31 39 37 43 44 29 40 33 41 42 38 36 35 44
40 29 39 34 38 37 25 25 18 25 24 15 24 23 13 15 25 21 21 20 17 27 37 23 29 31 31 35 35 39 28 31 39 37 27 45 43 48 38 45 38 49 48 48 43 42 49
53 32 32 40 37 36 32 29 25 29 25 29 28 26 22 24 16 18 25 27 23 25 29 30 30 33 31 37 34 34 35 43 37 33 28 38 46 42 48 53 51 49 53 47 49 50 49
46 40 39 38 32 44 44 32 29 28 26 31 26 28 29 23 29 26 25 24 23 28 31 29 34 34 37 39 42 30 32 47 29 42 44 47 50 45 49 50 46 61 55 58 59 54 54
53 48 48 51 45 45 42 35 43 33 32 30 31 31 28 25 29 32 30 30 26 29 27 36 39 33 42 40 41 33 36 33 38 50 55 50 55 43 57 56 61 62 63 56 59 62 55
55 56 53 52 49 50 48 43 44 40 37 41 34 28 35 36 30 34 33 31 39 36 32 35 35 36 39 40 40 42 52 49 53 48 45 52 51 58 54 58 64 67 62 70 61 72 72
58 60 59 60 56 51 47 50 49 47 47 46 44 39 39 37 35 40 37 41 40 39 41 42 42 41 42 43 44 46 46 52 51 54 53 54 54 58 60 60 63 65 69 69 65 70 72
65 63 64 63 60 57 58 50 52 54 49 47 47 39 42 43 44 45 43 43 41 43 47 46 43 48 46 44 46 50 49 52 55 56 61 60 63 61 66 65 64 74 71 81 69 70 73
73 71 64 68 66 63 60 58 39 55 54 55 51 50 51 49 50 48 33 46 46 46 47 48 50 51 49 48 51 51 55 55 57 60 60 65 63 68 71 72 71 68 75 76 75 82 88
80 75 74 71 67 67 66 64 62 60 62 47 52 49 40 54 45 53 42 51 49 48 51 51 52 53 56 57 57 55 59 63 61 66 67 66 68 70 74 72 68 74 76 77 85 82 89
88 80 81 70 75 73 71 70 69 67 64 63 60 40 63 60 56 55 37 57 56 55 54 55 53 56 61 62 61 64 65 66 67 68 70 71 67 70 68 69 69 75 82 90 91 94 97
73 91 64 71 79 66 78 74 76 72 68 63 65 66 65 58 42 63 64 63 62 56 60 59 60 61 61 63 65 66 68 68 69 69 70 76 73 76 77 72 80 75 83 79 84 88 97
96 85 82 90 88 79 82 59 78 76 75 73 70 64 46 67 68 66 66 68 46 66 64 62 63 67 57 67 69 68 71 70 73 60 74 74 75 76 72 76 82 76 78 80 98 88 93
81 99 94 98 77 86 93 84 77 83 80 74 70 70 71 71 69 68 69 63 70 71 64 65 68 69 71 69 72 72 68 76 77 77 77 65 74 80 81 80 80 76 78 80 82 92 91
83 99 103 95 102 83 92 85 74 89 86 78 77 79 76 57 74 76 77 77 74 70 68 70 54 60 73 63 79 77 79 80 76 78 82 81 82 80 83 93 80 88 96 84 98 92 95
116 113 74 107 105 104 95 99 86 61 91 72 88 86 66 51 58 83 76 79 75 77 72 76 75 58 79 78 81 79 84 88 83 88 91 81 92 83 92 87 85 89 87 86 92 95 97
119 112 105 80 102 86 98 104 82 75 66 98 95 83 90 84 59 80 67 82 74 75 63 60 81 85 82 72 85 74 86 86 92 98 92 96 91 93 102 90 94 92 78 105 116 106 124
124 116 105 117 99 110 110 93 108 101 112 95 96 95 90 85 86 89 87 83 73 85 84 87 90 86 89 91 88 89 86 96 99 90 95 103 80 107 110 105 112 100 93 116 114 100 99
135 127 124 118 116 113 92 101 85 115 111 107 95 101 76 84 90 84 68 91 82 81 89 91 90 89 93 96 94 98 99 103 106 105 101 100 108 114 119 107 109 119 110 103 123 101 113
139 128 117 128 128 112 120 119 121 115 107 74 110 104 68 93 70 95 90 75 85 85 91 90 95 91 96 104 106 106 100 106 104 108 102 71 118 121 109 117 120 122 93 114 101 99 105
115 132 139 126 109 128 130 109 123 105 105 103 96 101 95 85 95 92 82 79 85 85 83 90 94 99 98 107 103 108 109 113 112 113 113 102 121 115 114 124 129 109 99 100 118 104 129
109 135 133 132 135 108 109 80 125 125 107 112 120 99 118 109 106 99 80 97 108 106 104 99 107 109 98 99 104 115 111 106 118 112 119 118 120 124 90 128 98 108 96 104 116 120 119
144 146 135 137 124 137 132 117 114 106 129 127 112 121 108 89 116 108 108 102 112 111 108 82 112 104 106 118 115 116 117 87 119 117 115 101 123 81 88 111 94 107 123 120 121 126 138
Wind_Direction
256 235 235 229 231 234 241 248 263 254 255 256 255 242 246 246 237 234 197 173 167 157 221 260 257 181 246 290 85 301 312 42 316 319 28 322 13 352 9 338 9 355 357 356 348 338 341
276 229 222 231 239 239 247 249 248 244 232 243 241 224 228 209 230 210 186 205 224 210 259 147 247 278 270 287 296 309 302 313 359 11 315 326 330 353 314 313 328 5 344 313 322 316 330
267 231 222 280 225 256 237 230 233 238 227 190 206 220 216 212 226 212 245 251 259 265 267 237 270 234 290 289 293 296 307 313 306 308 303 313 312 312 310 318 313 309 318 342 328 311 304
251 256 228 256 266 219 213 200 183 198 201 203 210 215 242 240 246 235 247 149 240 268 224 236 244 285 274 277 290 296 298 306 305 301 306 299 348 309 304 315 298 308 307 307 310 310 304
262 253 272 253 231 192 235 199 204 227 229 220 222 238 242 244 250 245 246 162 191 249 256 266 273 279 276 284 290 290 295 300 293 301 298 304 305 302 315 309 306 309 316 306 307 310 309
252 247 250 207 223 234 227 245 216 226 241 240 248 246 254 219 217 205 198 225 222 229 243 263 272 270 278 280 274 287 294 294 294 290 292 300 318 308 296 302 300 298 306 299 307 320 298
258 250 247 242 259 241 246 237 234 234 242 247 228 217 224 230 261 208 235 219 230 260 261 267 260 285 274 286 295 288 302 285 274 282 291 291 296 298 307 297 300 294 304 303 306 303 295
255 253 264 254 258 271 249 245 265 252 253 211 254 279 230 235 267 246 253 240 234 248 273 239 267 268 265 278 272 290 272 267 282 284 285 288 303 295 291 293 299 302 297 299 304 302 301
269 254 260 264 254 254 253 247 252 252 228 257 260 262 263 277 249 244 249 255 238 245 256 269 271 274 258 274 257 262 295 281 279 270 305 280 286 305 298 307 298 298 299 301 299 301 304
246 244 242 243 237 253 256 260 243 238 248 252 244 255 268 252 264 270 276 245 251 250 262 255 250 273 254 280 282 279 257 289 264 272 275 281 296 291 292 297 300 300 299 305 302 301 305
240 243 245 272 250 251 257 244 257 270 248 245 242 250 268 248 254 263 256 275 259 253 274 279 264 290 273 264 265 271 267 281 262 273 278 279 301 302 304 292 299 299 303 311 312 311 311
244 243 241 243 244 247 273 259 256 264 252 265 255 269 251 266 253 272 261 264 267 271 266 273 278 280 281 267 277 283 276 284 282 296 285 283 293 295 301 297 301 301 301 301 308 305 303
239 240 243 259 245 260 241 248 264 251 254 261 264 259 260 256 255 267 262 265 268 271 280 274 274 277 274 281 275 286 287 291 287 292 271 288 288 300 302 304 301 309 306 302 308 307 304
240 245 241 257 244 242 245 243 249 255 250 250 260 264 274 269 268 264 269 264 277 267 278 277 280 284 281 285 284 280 286 282 281 280 291 294 291 300 300 306 309 306 307 303 309 304 306
247 241 253 242 242 242 245 244 258 249 247 269 266 251 259 255 260 266 281 268 274 274 274 279 281 280 281 279 287 286 279 283 287 283 290 279 292 291 294 300 306 308 301 308 305 300 303
250 248 244 244 253 244 244 247 243 244 247 250 249 254 275 258 264 260 269 266 273 274 271 275 275 280 281 283 282 286 285 285 293 290 292 291 287 292 295 300 303 303 306 300 299 305 302
244 249 243 253 246 248 246 246 256 250 249 250 250 263 253 254 268 271 276 263 265 266 268 271 284 277 279 279 283 285 285 288 290 292 294 297 297 295 295 298 300 307 302 300 303 305 299
242 245 244 251 254 254 248 248 246 253 251 252 251 253 253 268 259 261 266 266 264 283 269 270 274 275 284 279 285 284 286 286 289 291 293 297 299 295 295 294 299 299 294 307 301 299 297
250 245 246 250 242 253 259 247 251 250 249 261 250 267 263 257 260 262 263 265 270 269 270 276 277 277 288 283 282 284 286 294 289 301 295 299 303 291 293 300 297 303 299 310 295 300 301
239 245 247 246 247 253 247 257 256 250 249 253 252 258 255 261 264 267 265 279 270 268 274 277 280 280 282 284 286 286 294 287 291 290 292 299 292 295 297 298 293 298 310 305 312 298 297
240 246 242 243 248 250 250 257 250 253 252 255 254 254 260 273 262 260 262 264 268 271 278 274 286 285 283 290 285 285 288 288 292 291 292 292 297 295 296 302 293 303 306 305 314 301 302
241 243 248 245 249 252 253 253 262 250 251 255 254 256 263 263 266 261 260 261 266 271 278 279 278 287 285 283 287 288 290 294 291 298 298 293 302 292 305 304 308 318 305 306 308 300 299
243 245 243 245 244 249 251 247 257 257 243 259 256 260 255 260 265 266 270 263 276 276 282 280 280 281 282 289 287 293 292 291 297 298 299 298 297 304 307 309 309 313 301 308 314 313 317
232 244 241 235 247 244 250 249 258 258 263 262 252 255 257 262 263 262 262 264 271 269 271 276 277 280 282 285 288 292 293 297 297 294 299 303 294 305 307 307 309 307 290 314 316 306 305
236 243 240 247 242 249 249 251 254 252 263 258 260 255 259 260 257 264 268 265 268 273 271 276 276 277 286 291 291 294 296 297 296 299 301 301 303 305 306 308 313 312 315 312 318 311 312
236 240 246 243 240 249 245 249 250 258 262 252 262 271 261 264 269 262 267 273 271 271 271 274 284 284 288 289 290 292 295 296 298 301 302 296 303 303 309 311 309 307 303 318 315 309 306
241 239 235 244 246 246 244 252 247 255 254 259 266 261 271 262 267 273 266 268 272 279 279 282 285 287 289 290 292 293 295 298 299 301 296 303 301 305 309 308 307 313 309 296 319 305 318
234 238 238 241 241 247 248 250 251 250 255 260 261 265 260 270 272 275 270 279 279 282 284 284 285 285 288 291 293 294 295 298 299 300 297 298 301 301 306 306 309 314 299 304 315 312 314
236 231 239 237 243 241 245 251 251 253 250 255 261 262 266 267 264 272 275 280 278 281 283 281 284 286 289 290 292 294 295 296 294 295 298 305 302 299 300 311 297 312 315 310 315 315 316